This is the latest recevied weather packets stored in our database for station/object G8LMY. If no packets are shown the sender has not sent any weather packets the latest 10 day(s).
| Time | Temp. | Humidity | Pressure | Rain* | Wind** | Luminosity | Snow |
|---|---|---|---|---|---|---|---|
| 1777502334 | 11.11° C | 61% | 1022.3 hPa | 0 mm | - | - | - |
| 1777501434 | 11.11° C | 59% | 1022.3 hPa | 0 mm | - | - | - |
| 1777500534 | 11.11° C | 58% | 1022.4 hPa | 0 mm | - | - | - |
| 1777499635 | 11.11° C | 57% | 1022.3 hPa | 0 mm | - | - | - |
| 1777498734 | 11.11° C | 55% | 1022.2 hPa | 0 mm | - | - | - |
| 1777497833 | 11.67° C | 54% | 1022.1 hPa | 0 mm | - | - | - |
| 1777496933 | 11.67° C | 53% | 1022 hPa | 0 mm | - | - | - |
| 1777496034 | 11.67° C | 53% | 1022 hPa | 0 mm | - | - | - |
| 1777495133 | 12.22° C | 52% | 1021.9 hPa | 0 mm | - | - | - |
| 1777494234 | 12.22° C | 52% | 1021.8 hPa | 0 mm | - | - | - |
| 1777493334 | 12.22° C | 51% | 1021.7 hPa | 0 mm | - | - | - |
| 1777492435 | 12.78° C | 49% | 1021.7 hPa | 0 mm | - | - | - |
| 1777491535 | 12.78° C | 49% | 1021.6 hPa | 0 mm | - | - | - |
| 1777490635 | 13.33° C | 48% | 1021.5 hPa | 0 mm | - | - | - |
| 1777489734 | 13.33° C | 47% | 1021.5 hPa | 0 mm | - | - | - |
| 1777488835 | 13.89° C | 46% | 1021.5 hPa | 0 mm | - | - | - |
| 1777487935 | 13.89° C | 46% | 1021.3 hPa | 0 mm | - | - | - |
| 1777487034 | 14.44° C | 43% | 1021.1 hPa | 0 mm | - | - | - |
| 1777484334 | 15.56° C | 42% | 1020.7 hPa | 0 mm | - | - | - |
| 1777483433 | 16.67° C | 41% | 1020.7 hPa | 0 mm | - | - | - |
| 1777482534 | 17.22° C | 39% | 1020.7 hPa | 0 mm | - | - | - |
| 1777480734 | 17.78° C | 38% | 1020.7 hPa | 0 mm | - | - | - |
| 1777479834 | 18.33° C | 37% | 1020.7 hPa | 0 mm | - | - | - |
| 1777476234 | 18.89° C | 36% | 1021.1 hPa | 0 mm | - | - | - |
| 1777475334 | 18.89° C | 34% | 1021.2 hPa | 0 mm | - | - | - |
* Rain latest hour (hover to see other rain measurements)
** Current wind speed in m/s (hover to see current wind gust speed)